STARLINK-34869

Last updated on Tue Sep 16 2025 00:02:07 GMT+0000 (Coordinated Universal Time)

1 65371U 25190W 25258.36950634 .00228412 00000+0 23879-2 0 9996 2 65371 53.1586 266.0202 0002513 193.3719 166.7230 15.63211998 2860
UTC large
Height (km)
Speed (km/s)
/
Latitude / Longitude
Inclination (degrees)
Orbital Period (minutes)
Azimuth
Elevation
Range (km)
Doppler Factor

Next 0 passes for location: London (51.5072 / 0.1276)

Sorry there are no passes over London.